Location: Archemont
(49.1579°N, 1.7598°E)
Time: 10:10:18
(UTC+00:00)

S-56A Canister/Altair - Pass Details

Date: 19 April 2024
Orbit: 638 x 2488 km, 38.9° (Epoch: 20 May)

Event Time Altitude Azimuth Distance (km) Brightness Sun altitude
Rises 00:08:04 0° 269° (W) 4,844 11.6 -29.5°
Enters shadow 00:13:00 10° 248° (WSW) 4,253 11.0 -29.4°
Reaches altitude 10° 00:13:14 10° 247° (WSW) 4,238 - -29.4°
Maximum altitude 00:18:26 14° 220° (SW) 4,222 - -29.3°
Drops below altitude 10° 00:24:17 10° 194° (SSW) 4,848 - -29.1°
Sets 00:31:12 0° 173° (S) 6,073 - -28.9°
